TimeCDT,TemperatureF,Dew PointF,Humidity,Sea Level PressureIn,VisibilityMPH,Wind Direction,Wind SpeedMPH,Gust SpeedMPH,PrecipitationIn,Events,Conditions,WindDirDegrees,DateUTC
12:15 AM,62.6,52.7,70,29.74,10.0,Calm,Calm,-,N/A,,Clear,0,2013-04-29 05:15:00
12:35 AM,60.8,52.7,75,29.74,10.0,SE,4.6,-,N/A,,Clear,140,2013-04-29 05:35:00
12:55 AM,61.7,53.6,75,29.75,10.0,Calm,Calm,-,N/A,,Clear,0,2013-04-29 05:55:00
1:15 AM,60.4,53.2,77,29.75,10.0,Calm,Calm,-,N/A,,Clear,0,2013-04-29 06:15:00
1:35 AM,58.1,53.1,83,29.75,10.0,Calm,Calm,-,N/A,,Clear,0,2013-04-29 06:35:00
1:55 AM,58.1,53.6,85,29.75,10.0,SSE,3.5,-,N/A,,Clear,160,2013-04-29 06:55:00
2:15 AM,59.0,53.6,82,29.73,10.0,SSE,6.9,-,N/A,,Clear,150,2013-04-29 07:15:00
2:35 AM,59.2,53.6,82,29.73,10.0,Calm,Calm,-,N/A,,Clear,0,2013-04-29 07:35:00
2:55 AM,59.2,53.8,82,29.73,10.0,Calm,Calm,-,N/A,,Clear,0,2013-04-29 07:55:00
3:15 AM,58.6,53.8,84,29.72,10.0,Calm,Calm,-,N/A,,Clear,0,2013-04-29 08:15:00
3:35 AM,57.4,53.8,88,29.72,10.0,Calm,Calm,-,N/A,,Clear,0,2013-04-29 08:35:00
3:55 AM,58.3,54.1,86,29.72,10.0,Calm,Calm,-,N/A,,Clear,0,2013-04-29 08:55:00
4:15 AM,56.8,52.7,86,29.73,10.0,Calm,Calm,-,N/A,,Clear,0,2013-04-29 09:15:00
4:35 AM,58.5,54.1,86,29.73,10.0,Calm,Calm,-,N/A,,Scattered Clouds,0,2013-04-29 09:35:00
4:55 AM,59.5,53.1,79,29.72,10.0,NNW,5.8,-,N/A,,Scattered Clouds,330,2013-04-29 09:55:00
5:15 AM,59.5,49.1,68,29.74,10.0,NW,6.9,-,N/A,,Scattered Clouds,320,2013-04-29 10:15:00
5:35 AM,59.2,48.2,67,29.74,10.0,NNE,5.8,-,N/A,,Scattered Clouds,20,2013-04-29 10:35:00
5:55 AM,59.0,47.8,66,29.72,10.0,Calm,Calm,-,N/A,,Scattered Clouds,0,2013-04-29 10:55:00
6:15 AM,58.1,48.2,70,29.71,10.0,Calm,Calm,-,N/A,,Scattered Clouds,0,2013-04-29 11:15:00
6:35 AM,58.5,48.2,69,29.73,10.0,Calm,Calm,-,N/A,,Clear,0,2013-04-29 11:35:00
6:55 AM,57.9,48.2,70,29.74,10.0,NW,3.5,-,N/A,,Clear,320,2013-04-29 11:55:00
7:15 AM,57.6,48.6,72,29.73,10.0,North,5.8,-,N/A,,Clear,360,2013-04-29 12:15:00
7:35 AM,57.4,49.1,74,29.75,10.0,NNW,11.5,16.1,N/A,,Clear,330,2013-04-29 12:35:00
7:55 AM,56.5,48.7,75,29.75,7.0,NW,10.4,18.4,N/A,Rain,Light Rain,320,2013-04-29 12:55:00
8:15 AM,56.7,48.7,75,29.74,10.0,NNE,5.8,-,N/A,,Clear,20,2013-04-29 13:15:00
8:35 AM,57.2,49.3,75,29.75,10.0,North,5.8,-,N/A,,Clear,350,2013-04-29 13:35:00
8:55 AM,57.6,49.8,75,29.75,10.0,Calm,Calm,-,N/A,,Clear,0,2013-04-29 13:55:00
9:15 AM,59.0,50.5,73,29.77,10.0,Calm,Calm,-,N/A,,Clear,0,2013-04-29 14:15:00
9:35 AM,59.0,50.5,73,29.76,10.0,Calm,Calm,-,N/A,,Clear,0,2013-04-29 14:35:00
9:55 AM,60.3,51.8,74,29.76,10.0,WNW,4.6,-,N/A,,Clear,300,2013-04-29 14:55:00
10:15 AM,61.0,52.0,72,29.75,10.0,Calm,Calm,-,N/A,,Clear,0,2013-04-29 15:15:00
10:35 AM,61.3,52.0,71,29.74,10.0,NNW,4.6,-,N/A,,Clear,340,2013-04-29 15:35:00
10:55 AM,62.6,52.9,70,29.73,10.0,NNW,4.6,-,N/A,,Clear,330,2013-04-29 15:55:00
11:15 AM,64.0,53.6,69,29.72,10.0,NNE,3.5,-,N/A,,Clear,20,2013-04-29 16:15:00
11:35 AM,65.5,53.8,66,29.71,10.0,NE,3.5,-,N/A,,Clear,50,2013-04-29 16:35:00
11:55 AM,67.6,54.7,63,29.71,10.0,Calm,Calm,-,N/A,,Clear,0,2013-04-29 16:55:00
12:15 PM,68.7,55.2,62,29.70,10.0,Calm,Calm,-,N/A,,Clear,0,2013-04-29 17:15:00
12:35 PM,69.8,54.7,59,29.70,10.0,Calm,Calm,-,N/A,,Clear,0,2013-04-29 17:35:00
12:55 PM,71.6,54.5,55,29.69,10.0,Calm,Calm,-,N/A,,Clear,0,2013-04-29 17:55:00
1:15 PM,72.1,55.0,55,29.69,10.0,Calm,Calm,-,N/A,,Clear,0,2013-04-29 18:15:00
1:35 PM,73.4,55.8,54,29.68,10.0,Calm,Calm,-,N/A,,Clear,0,2013-04-29 18:35:00
1:55 PM,74.8,55.9,52,29.67,10.0,Calm,Calm,-,N/A,,Clear,0,2013-04-29 18:55:00
2:15 PM,76.1,55.8,49,29.64,10.0,SE,5.8,-,N/A,,Clear,130,2013-04-29 19:15:00
2:35 PM,77.7,54.7,45,29.64,10.0,SSE,3.5,-,N/A,,Clear,160,2013-04-29 19:35:00
2:55 PM,79.2,55.9,45,29.64,10.0,SE,3.5,-,N/A,,Clear,130,2013-04-29 19:55:00
3:15 PM,80.4,54.1,40,29.63,10.0,Calm,Calm,-,N/A,,Clear,0,2013-04-29 20:15:00
3:35 PM,81.1,51.1,35,29.62,10.0,South,6.9,-,N/A,,Clear,190,2013-04-29 20:35:00
3:55 PM,82.6,50.0,32,29.60,10.0,SW,4.6,-,N/A,,Clear,220,2013-04-29 20:55:00
4:15 PM,83.7,49.8,31,29.59,10.0,South,8.1,-,N/A,,Clear,190,2013-04-29 21:15:00
4:35 PM,83.7,48.6,29,29.59,10.0,South,5.8,-,N/A,,Clear,180,2013-04-29 21:35:00
4:55 PM,84.2,45.0,25,29.58,10.0,SSE,9.2,-,N/A,,Clear,160,2013-04-29 21:55:00
5:15 PM,84.2,45.7,26,29.58,10.0,SW,5.8,-,N/A,,Clear,220,2013-04-29 22:15:00
5:35 PM,84.2,48.4,29,29.56,10.0,South,6.9,-,N/A,,Clear,190,2013-04-29 22:35:00
5:55 PM,83.3,46.6,28,29.56,10.0,SSE,6.9,-,N/A,,Clear,150,2013-04-29 22:55:00
6:15 PM,84.2,45.3,26,29.55,10.0,South,6.9,-,N/A,,Clear,180,2013-04-29 23:15:00
6:35 PM,84.2,46.0,26,29.54,10.0,South,8.1,-,N/A,,Clear,170,2013-04-29 23:35:00
6:55 PM,83.3,47.5,29,29.54,10.0,SSE,11.5,-,N/A,,Clear,150,2013-04-29 23:55:00
7:15 PM,82.2,47.7,30,29.54,10.0,SSE,9.2,-,N/A,,Clear,160,2013-04-30 00:15:00
7:35 PM,80.8,49.3,33,29.54,10.0,NNE,3.5,-,N/A,,Clear,20,2013-04-30 00:35:00
7:55 PM,79.5,49.6,35,29.53,10.0,Calm,Calm,-,N/A,,Clear,0,2013-04-30 00:55:00
8:15 PM,77.7,50.2,38,29.53,10.0,Calm,Calm,-,N/A,,Clear,0,2013-04-30 01:15:00
8:35 PM,73.4,53.2,49,29.53,10.0,Calm,Calm,-,N/A,,Clear,0,2013-04-30 01:35:00
8:55 PM,72.5,52.7,50,29.54,10.0,Calm,Calm,-,N/A,,Clear,0,2013-04-30 01:55:00
9:15 PM,70.3,54.1,56,29.54,10.0,Calm,Calm,-,N/A,,Clear,0,2013-04-30 02:15:00
9:35 PM,68.9,54.3,60,29.54,10.0,Calm,Calm,-,N/A,,Clear,0,2013-04-30 02:35:00
9:55 PM,68.4,54.5,61,29.54,10.0,Calm,Calm,-,N/A,,Clear,0,2013-04-30 02:55:00
10:35 PM,69.3,54.3,59,29.54,10.0,South,4.6,-,N/A,,Clear,190,2013-04-30 03:35:00
10:55 PM,72.7,54.5,53,29.53,10.0,SSE,4.6,-,N/A,,Clear,160,2013-04-30 03:55:00
11:15 PM,73.4,54.5,51,29.53,10.0,Calm,Calm,-,N/A,,Clear,0,2013-04-30 04:15:00
11:35 PM,70.9,55.4,58,29.52,10.0,SE,3.5,-,N/A,,Clear,130,2013-04-30 04:35:00
11:55 PM,73.2,56.5,56,29.51,10.0,SSE,9.2,-,N/A,,Clear,150,2013-04-30 04:55:00